Change the Weather History Date:

Sunday, February 23, 2014

  Actual Average Record
Temperature  
Mean Temperature 36 °F 40 °F  
Max Temperature 44 °F 49 °F 75 °F (1982)
Min Temperature 28 °F 32 °F 5 °F (1963)
Degree Days  
Heating Degree Days 29 25  
Month to date heating degree days 732 633  
Since 1 July heating degree days 3625 3242  
Cooling Degree Days 0 0  
Month to date cooling degree days 0 0  
Year to date cooling degree days 0 0  
Moisture  
Dew Point 30 °F    
Average Humidity 80    
Maximum Humidity 96    
Minimum Humidity 63    
Precipitation  
Precipitation 0.04 in 0.11 in 2.53 in (1975)
Month to date precipitation 3.51 2.63  
Year to date precipitation 5.77 6.01  
Sea Level Pressure  
Sea Level Pressure 30.13 in    
Wind  
Wind Speed 7 mph (North)    
Max Wind Speed 15 mph    
Max Gust Speed 21 mph    
Visibility 8 miles    
Events Fog , Rain , Snow    
T = Trace of Precipitation, MM = Missing Value Source: NWS Daily Summary

Daily Weather History Graph

Daily Weather History Graph

Search for Another Location

Airport or City:

Trip Planner

Search our weather history database for the weather conditions in past years. The results will help you decide how hot, cold, wet, or windy it might be!

Date:

Astronomy

Feb. 23, 2014 Rise Set
Actual Time 7:22 AM EST 6:29 PM EST
Civil Twilight 6:56 AM EST 6:56 PM EST
Nautical Twilight 6:25 AM EST 7:27 PM EST
Astronomical Twilight 5:54 AM EST 7:57 PM EST
Moon 2:17 AM EST (2/23) 12:34 PM EST (2/23)
Length of Visible Light 12h 00m
Length of Day
11h 06m
Last Quarter, 39% of the Moon is Illuminated
Feb 23
Last Quarter
Mar 1
New
Mar 8
First Quarter
Mar 16
Full
Mar 23
Last Quarter

Hourly Weather History & Observations

Time (EST) Temp. Windchill Dew Point Humidity Pressure Visibility Wind Dir Wind Speed Gust Speed Precip Events Conditions
12:53 AM 41.0 °F 35.8 °F 30.0 °F 65% 30.03 in 10.0 mi North 8.1 mph - N/A   Clear
1:53 AM 39.9 °F 35.8 °F 30.0 °F 68% 30.03 in 10.0 mi NNE 5.8 mph - N/A   Clear
2:53 AM 37.9 °F 35.5 °F 28.9 °F 70% 30.04 in 10.0 mi North 3.5 mph - N/A   Clear
3:53 AM 34.0 °F 29.8 °F 28.0 °F 79% 30.04 in 10.0 mi NW 4.6 mph - N/A   Partly Cloudy
4:53 AM 35.1 °F 32.2 °F 28.9 °F 78% 30.04 in 10.0 mi NNW 3.5 mph - N/A   Partly Cloudy
5:53 AM 34.0 °F - 28.0 °F 79% 30.03 in 10.0 mi Calm Calm - N/A   Mostly Cloudy
6:53 AM 33.1 °F 28.7 °F 28.0 °F 82% 30.05 in 10.0 mi North 4.6 mph - N/A   Clear
7:53 AM 35.1 °F 32.2 °F 30.0 °F 82% 30.05 in 10.0 mi North 3.5 mph - N/A   Clear
8:53 AM 37.9 °F 32.7 °F 32.0 °F 79% 30.09 in 10.0 mi North 6.9 mph - N/A   Partly Cloudy
9:53 AM 41.0 °F 35.8 °F 33.1 °F 73% 30.12 in 10.0 mi North 8.1 mph - N/A   Overcast
10:53 AM 43.0 °F 37.7 °F 33.1 °F 68% 30.12 in 10.0 mi NNE 9.2 mph 17.3 mph N/A   Mostly Cloudy
11:53 AM 41.0 °F 33.5 °F 33.1 °F 73% 30.12 in 10.0 mi North 13.8 mph - N/A   Overcast
12:50 PM 42.8 °F 38.0 °F 33.8 °F 70% 30.12 in 10.0 mi NNW 8.1 mph 16.1 mph N/A   Mostly Cloudy
12:53 PM 44.1 °F 39.0 °F 33.1 °F 65% 30.13 in 10.0 mi North 9.2 mph - N/A   Mostly Cloudy
1:53 PM 41.0 °F 34.3 °F 33.1 °F 73% 30.12 in 10.0 mi NNE 11.5 mph 18.4 mph 0.00 in Rain Light Rain
2:02 PM 41.0 °F 36.4 °F 33.8 °F 76% 30.10 in 10.0 mi North 6.9 mph - 0.00 in Rain Light Rain
2:50 PM 39.2 °F 32.5 °F 33.8 °F 81% 30.13 in 10.0 mi NNW 10.4 mph - 0.00 in   Overcast
2:53 PM 39.0 °F 32.3 °F 33.1 °F 79% 30.14 in 10.0 mi NNW 10.4 mph - 0.00 in   Overcast
3:03 PM 37.4 °F 29.8 °F 33.8 °F 87% 30.12 in 10.0 mi NNW 11.5 mph - N/A   Overcast
3:29 PM 35.6 °F 28.0 °F 32.0 °F 87% 30.14 in 2.5 mi North 10.4 mph 19.6 mph 0.01 in Snow Light Snow
3:40 PM 35.6 °F 29.2 °F 33.8 °F 93% 30.15 in 2.5 mi North 8.1 mph - 0.01 in Snow Light Snow
3:51 PM 35.6 °F 28.0 °F 32.0 °F 87% 30.15 in 2.0 mi North 10.4 mph - 0.01 in Snow Light Snow
3:53 PM 35.1 °F 27.9 °F 32.0 °F 89% 30.16 in 2.0 mi North 9.2 mph - 0.01 in Snow Light Snow
4:00 PM 33.8 °F 28.6 °F 32.0 °F 93% 30.14 in 1.5 mi North 5.8 mph - 0.01 in Snow Light Snow
4:07 PM 33.8 °F 27.0 °F 32.0 °F 93% 30.14 in 1.0 mi North 8.1 mph - 0.01 in Snow Light Snow
4:19 PM 33.8 °F 27.7 °F 30.2 °F 87% 30.14 in 0.5 mi North 6.9 mph - 0.02 in Fog , Snow Snow
4:34 PM 33.8 °F 29.6 °F 32.0 °F 93% 30.14 in 1.0 mi North 4.6 mph - 0.03 in Snow Light Snow
4:45 PM 33.8 °F 30.8 °F 32.0 °F 93% 30.15 in 3.0 mi Variable 3.5 mph - 0.03 in Snow Light Snow
4:53 PM 34.0 °F 29.8 °F 32.0 °F 92% 30.17 in 6.0 mi North 4.6 mph - 0.03 in Snow Light Snow
5:13 PM 33.8 °F 30.8 °F 30.2 °F 87% 30.15 in 10.0 mi North 3.5 mph - 0.00 in   Overcast
5:24 PM 33.8 °F 29.6 °F 30.2 °F 87% 30.15 in 10.0 mi Variable 4.6 mph - 0.00 in   Overcast
5:53 PM 35.1 °F 30.1 °F 30.0 °F 82% 30.17 in 10.0 mi North 5.8 mph - 0.00 in   Overcast
6:53 PM 34.0 °F 28.8 °F 30.0 °F 85% 30.19 in 10.0 mi NNW 5.8 mph - N/A   Mostly Cloudy
7:53 PM 33.1 °F 28.7 °F 30.9 °F 92% 30.20 in 9.0 mi NNW 4.6 mph - N/A   Clear
8:53 PM 32.0 °F 25.6 °F 21.9 °F 66% 30.21 in 10.0 mi North 6.9 mph - N/A   Clear
9:53 PM 30.9 °F 23.5 °F 19.0 °F 61% 30.24 in 10.0 mi North 8.1 mph - N/A   Clear
10:53 PM 28.9 °F 22.8 °F 17.1 °F 61% 30.25 in 10.0 mi North 5.8 mph - N/A   Clear
11:53 PM 28.0 °F 22.8 °F 16.0 °F 61% 30.26 in 10.0 mi NNW 4.6 mph - N/A   Clear